Location: C.E.K. Mees Observatory
(42.7003°N, 77.4088°W)
Time: 23:51:30
(UTC-05:00)

Envisat - Pass Details

Date: 27 November 2019
Orbit: 764 x 766 km, 98.1° (Epoch: 09 December)

Event Time Altitude Azimuth Distance (km) Brightness Sun altitude
Rises 17:19:04 0° 141° (SE) 3,219 6.0 -7.6°
Reaches altitude 10° 17:21:31 10° 132° (SE) 2,297 5.2 -8.0°
Maximum altitude 17:26:04 35° 68° (ENE) 1,227 3.6 -8.7°
Drops below altitude 10° 17:30:38 10° 4° (N) 2,310 5.2 -9.5°
Sets 17:33:06 0° 356° (N) 3,240 6.1 -10.0°
